Year,Month,Day,Hour,Minute,Value (Times are PST for windspeed in km/hr)
2010,04,03,00,00,20.80
2010,04,03,00,01,18.20
2010,04,03,00,02,31.20
2010,04,03,00,03,22.90
2010,04,03,00,04,32.30
2010,04,03,00,05,33.80
2010,04,03,00,06,20.40
2010,04,03,00,07,23.30
2010,04,03,00,08,28.20
2010,04,03,00,09,21.60
2010,04,03,00,10,24.00
2010,04,03,00,11,22.20
2010,04,03,00,12,34.10
2010,04,03,00,13,21.10
2010,04,03,00,14,24.80
2010,04,03,00,15,27.40
2010,04,03,00,16,23.30
2010,04,03,00,17,20.20
2010,04,03,00,18,14.60
2010,04,03,00,19,21.30
2010,04,03,00,20,22.70
2010,04,03,00,21,19.50
2010,04,03,00,22,23.70
2010,04,03,00,23,16.00
2010,04,03,00,24,16.20
2010,04,03,00,25,23.40
2010,04,03,00,26,28.10
2010,04,03,00,27,24.40
2010,04,03,00,28,26.70
2010,04,03,00,29,25.70
2010,04,03,00,30,21.80
2010,04,03,00,31,28.40
2010,04,03,00,32,29.50
2010,04,03,00,33,35.50
2010,04,03,00,34,27.90
2010,04,03,00,35,21.60
2010,04,03,00,36,24.20
2010,04,03,00,37,28.80
2010,04,03,00,38,27.20
2010,04,03,00,39,28.30
2010,04,03,00,40,26.10
2010,04,03,00,41,25.40
2010,04,03,00,42,30.20
2010,04,03,00,43,26.90
2010,04,03,00,44,31.50
2010,04,03,00,45,27.20
2010,04,03,00,46,20.80
2010,04,03,00,47,24.20
2010,04,03,00,48,19.90
2010,04,03,00,49,19.90
2010,04,03,00,50,32.10
2010,04,03,00,51,16.20
2010,04,03,00,52,20.00
2010,04,03,00,53,20.50
2010,04,03,00,54,25.00
2010,04,03,00,55,22.20
2010,04,03,00,56,25.30
2010,04,03,00,57,19.00
2010,04,03,00,58,18.80
2010,04,03,00,59,30.20
2010,04,03,01,00,17.80
2010,04,03,01,01,17.60
2010,04,03,01,02,21.40
2010,04,03,01,03,13.50
2010,04,03,01,04,13.40
2010,04,03,01,05,15.50
2010,04,03,01,06,16.30
2010,04,03,01,07,22.60
2010,04,03,01,08,19.30
2010,04,03,01,09,9.70
2010,04,03,01,10,11.90
2010,04,03,01,11,24.40
2010,04,03,01,12,17.90
2010,04,03,01,13,18.30
2010,04,03,01,14,22.30
2010,04,03,01,15,14.10
2010,04,03,01,16,12.80
2010,04,03,01,17,23.60
2010,04,03,01,18,21.50
2010,04,03,01,19,16.90
2010,04,03,01,20,20.00
2010,04,03,01,21,19.20
2010,04,03,01,22,20.70
2010,04,03,01,23,17.70
2010,04,03,01,24,16.60
2010,04,03,01,25,11.80
2010,04,03,01,26,19.10
2010,04,03,01,27,9.10
2010,04,03,01,28,13.30
2010,04,03,01,29,11.30
2010,04,03,01,30,11.00
2010,04,03,01,31,17.50
2010,04,03,01,32,14.40
2010,04,03,01,33,10.00
2010,04,03,01,34,5.70
2010,04,03,01,35,13.70
2010,04,03,01,36,10.90
2010,04,03,01,37,13.00
2010,04,03,01,38,8.40
2010,04,03,01,39,15.30
2010,04,03,01,40,25.30
2010,04,03,01,41,15.00
2010,04,03,01,42,16.50
2010,04,03,01,43,13.10
2010,04,03,01,44,13.40
2010,04,03,01,45,14.30
2010,04,03,01,46,18.80
2010,04,03,01,47,19.30
2010,04,03,01,48,16.80
2010,04,03,01,49,11.40
2010,04,03,01,50,13.00
2010,04,03,01,51,8.70
2010,04,03,01,52,12.70
2010,04,03,01,53,6.30
2010,04,03,01,54,9.60
2010,04,03,01,55,8.00
2010,04,03,01,56,8.90
2010,04,03,01,57,13.90
2010,04,03,01,58,12.00
2010,04,03,01,59,10.70
2010,04,03,02,00,9.10
2010,04,03,02,01,13.10
2010,04,03,02,02,12.90
2010,04,03,02,03,10.70
2010,04,03,02,04,11.10
2010,04,03,02,05,10.10
2010,04,03,02,06,11.20
2010,04,03,02,07,22.60
2010,04,03,02,08,12.60
2010,04,03,02,09,15.20
2010,04,03,02,10,17.60
2010,04,03,02,11,14.40
2010,04,03,02,12,8.40
2010,04,03,02,13,11.30
2010,04,03,02,14,12.60
2010,04,03,02,15,14.80
2010,04,03,02,16,7.90
2010,04,03,02,17,12.10
2010,04,03,02,18,22.40
2010,04,03,02,19,16.00
2010,04,03,02,20,18.70
2010,04,03,02,21,10.90
2010,04,03,02,22,21.40
2010,04,03,02,23,17.90
2010,04,03,02,24,21.80
2010,04,03,02,25,23.40
2010,04,03,02,26,25.70
2010,04,03,02,27,16.80
2010,04,03,02,28,13.00
2010,04,03,02,29,15.80
2010,04,03,02,30,11.70
2010,04,03,02,31,13.50
2010,04,03,02,32,18.20
2010,04,03,02,33,16.90
2010,04,03,02,34,16.10
2010,04,03,02,35,10.00
2010,04,03,02,36,17.00
2010,04,03,02,37,14.80
2010,04,03,02,38,10.10
2010,04,03,02,39,15.80
2010,04,03,02,40,21.10
2010,04,03,02,41,13.20
2010,04,03,02,42,18.90
2010,04,03,02,43,12.20
2010,04,03,02,44,10.90
2010,04,03,02,45,19.80
2010,04,03,02,46,9.90
2010,04,03,02,47,13.50
2010,04,03,02,48,13.60
2010,04,03,02,49,8.70
2010,04,03,02,50,10.60
2010,04,03,02,51,13.00
2010,04,03,02,52,15.70
2010,04,03,02,53,9.20
2010,04,03,02,54,17.30
2010,04,03,02,55,18.40
2010,04,03,02,56,19.60
2010,04,03,02,57,14.20
2010,04,03,02,58,18.10
2010,04,03,02,59,13.00
2010,04,03,03,00,18.50
2010,04,03,03,01,14.20
2010,04,03,03,02,12.60
2010,04,03,03,03,11.70
2010,04,03,03,04,15.40
2010,04,03,03,05,19.00
2010,04,03,03,06,19.50
2010,04,03,03,07,15.40
2010,04,03,03,08,14.30
2010,04,03,03,09,20.70
2010,04,03,03,10,16.50
2010,04,03,03,11,17.60
2010,04,03,03,12,22.40
2010,04,03,03,13,21.30
2010,04,03,03,14,15.40
2010,04,03,03,15,12.30
2010,04,03,03,16,15.70
2010,04,03,03,17,24.10
2010,04,03,03,18,17.10
2010,04,03,03,19,17.80
2010,04,03,03,20,21.90
2010,04,03,03,21,13.00
2010,04,03,03,22,19.00
2010,04,03,03,23,12.30
2010,04,03,03,24,12.40
2010,04,03,03,25,14.10
2010,04,03,03,26,15.60
2010,04,03,03,27,13.50
2010,04,03,03,28,6.20
2010,04,03,03,29,14.40
2010,04,03,03,30,14.50
2010,04,03,03,31,14.30
2010,04,03,03,32,14.20
2010,04,03,03,33,6.30
2010,04,03,03,34,9.30
2010,04,03,03,35,9.00
2010,04,03,03,36,5.80
2010,04,03,03,37,8.80
2010,04,03,03,38,11.90
2010,04,03,03,39,5.80
2010,04,03,03,40,13.20
2010,04,03,03,41,22.50
2010,04,03,03,42,11.60
2010,04,03,03,43,12.20
2010,04,03,03,44,11.20
2010,04,03,03,45,12.60
2010,04,03,03,46,12.40
2010,04,03,03,47,11.00
2010,04,03,03,48,15.90
2010,04,03,03,49,20.10
2010,04,03,03,50,18.00
2010,04,03,03,51,13.40
2010,04,03,03,52,16.50
2010,04,03,03,53,32.30
2010,04,03,03,54,25.60
2010,04,03,03,55,23.60
2010,04,03,03,56,20.30
2010,04,03,03,57,20.60
2010,04,03,03,58,28.00
2010,04,03,03,59,16.80
2010,04,03,04,00,25.30
2010,04,03,04,01,15.60
2010,04,03,04,02,13.90
2010,04,03,04,03,14.80
2010,04,03,04,04,23.00
2010,04,03,04,05,22.50
2010,04,03,04,06,15.90
2010,04,03,04,07,20.40
2010,04,03,04,08,15.20
2010,04,03,04,09,17.30
2010,04,03,04,10,25.50
2010,04,03,04,11,13.90
2010,04,03,04,12,17.40
2010,04,03,04,13,21.40
2010,04,03,04,14,18.50
2010,04,03,04,15,14.00
2010,04,03,04,16,11.70
2010,04,03,04,17,18.50
2010,04,03,04,18,16.40
2010,04,03,04,19,17.00
2010,04,03,04,20,9.60
2010,04,03,04,21,16.60
2010,04,03,04,22,16.60
2010,04,03,04,23,11.80
2010,04,03,04,24,14.80
2010,04,03,04,25,24.70
2010,04,03,04,26,16.20
2010,04,03,04,27,17.50
2010,04,03,04,28,28.20
2010,04,03,04,29,23.20
2010,04,03,04,30,26.30
2010,04,03,04,31,24.90
2010,04,03,04,32,29.50
2010,04,03,04,33,19.60
2010,04,03,04,34,23.70
2010,04,03,04,35,14.20
2010,04,03,04,36,14.70
2010,04,03,04,37,21.20
2010,04,03,04,38,9.70
2010,04,03,04,39,18.30
2010,04,03,04,40,13.60
2010,04,03,04,41,9.50
2010,04,03,04,42,13.00
2010,04,03,04,43,11.10
2010,04,03,04,44,8.60
2010,04,03,04,45,10.40
2010,04,03,04,46,17.10
2010,04,03,04,47,11.80
2010,04,03,04,48,13.80
2010,04,03,04,49,17.50
2010,04,03,04,50,11.00
2010,04,03,04,51,13.80
2010,04,03,04,52,14.10
2010,04,03,04,53,13.80
2010,04,03,04,54,16.80
2010,04,03,04,55,12.80
2010,04,03,04,56,8.60
2010,04,03,04,57,13.50
2010,04,03,04,58,13.00
2010,04,03,04,59,12.00
2010,04,03,05,00,12.30
2010,04,03,05,01,7.00
2010,04,03,05,02,7.50
2010,04,03,05,03,10.90
2010,04,03,05,04,9.30
2010,04,03,05,05,11.50
2010,04,03,05,06,5.30
2010,04,03,05,07,5.60
2010,04,03,05,08,3.10
2010,04,03,05,09,8.90
2010,04,03,05,10,6.90
2010,04,03,05,11,8.80
2010,04,03,05,12,7.70
2010,04,03,05,13,10.30
2010,04,03,05,14,10.50
2010,04,03,05,15,15.20
2010,04,03,05,16,13.00
2010,04,03,05,17,12.50
2010,04,03,05,18,10.50
2010,04,03,05,19,12.50
2010,04,03,05,20,15.20
2010,04,03,05,21,12.60
2010,04,03,05,22,16.70
2010,04,03,05,23,12.70
2010,04,03,05,24,11.50
2010,04,03,05,25,8.90
2010,04,03,05,26,16.60
2010,04,03,05,27,14.80
2010,04,03,05,28,11.50
2010,04,03,05,29,18.70
2010,04,03,05,30,15.10
2010,04,03,05,31,17.40
2010,04,03,05,32,15.50
2010,04,03,05,33,12.10
2010,04,03,05,34,15.30
2010,04,03,05,35,16.90
2010,04,03,05,36,11.40
2010,04,03,05,37,9.70
2010,04,03,05,38,9.50
2010,04,03,05,39,14.80
2010,04,03,05,40,14.40
2010,04,03,05,41,8.10
2010,04,03,05,42,7.90
2010,04,03,05,43,14.10
2010,04,03,05,44,8.10
2010,04,03,05,45,10.00
2010,04,03,05,46,14.40
2010,04,03,05,47,7.60
2010,04,03,05,48,14.60
2010,04,03,05,49,9.40
2010,04,03,05,50,8.10
2010,04,03,05,51,4.60
2010,04,03,05,52,7.40
2010,04,03,05,53,9.70
2010,04,03,05,54,9.60
2010,04,03,05,55,9.30
2010,04,03,05,56,8.90
2010,04,03,05,57,9.80
2010,04,03,05,58,4.00
2010,04,03,05,59,6.10
2010,04,03,06,00,6.50
2010,04,03,06,01,4.70
2010,04,03,06,02,3.90
2010,04,03,06,03,6.10
2010,04,03,06,04,12.90
2010,04,03,06,05,15.00
2010,04,03,06,06,12.80
2010,04,03,06,07,11.40
2010,04,03,06,08,8.60
2010,04,03,06,09,12.20
2010,04,03,06,10,3.40
2010,04,03,06,11,6.30
2010,04,03,06,12,9.40
2010,04,03,06,13,11.10
2010,04,03,06,14,8.70
2010,04,03,06,15,15.90
2010,04,03,06,16,8.50
2010,04,03,06,17,12.80
2010,04,03,06,18,14.20
2010,04,03,06,19,16.30
2010,04,03,06,20,13.20
2010,04,03,06,21,9.20
2010,04,03,06,22,5.60
2010,04,03,06,23,8.40
2010,04,03,06,24,8.80
2010,04,03,06,25,4.80
2010,04,03,06,26,9.90
2010,04,03,06,27,9.00
2010,04,03,06,28,5.60
2010,04,03,06,29,5.20
2010,04,03,06,30,6.60
2010,04,03,06,31,6.10
2010,04,03,06,32,4.00
2010,04,03,06,33,3.80
2010,04,03,06,34,7.50
2010,04,03,06,35,15.20
2010,04,03,06,36,13.50
2010,04,03,06,37,16.80
2010,04,03,06,38,12.30
2010,04,03,06,39,6.70
2010,04,03,06,40,9.70
2010,04,03,06,41,8.00
2010,04,03,06,42,12.50
2010,04,03,06,43,11.40
2010,04,03,06,44,18.40
2010,04,03,06,45,12.30
2010,04,03,06,46,8.20
2010,04,03,06,47,12.30
2010,04,03,06,48,9.80
2010,04,03,06,49,10.90
2010,04,03,06,50,11.30
2010,04,03,06,51,9.00
2010,04,03,06,52,11.00
2010,04,03,06,53,11.40
2010,04,03,06,54,14.80
2010,04,03,06,55,9.30
2010,04,03,06,56,12.90
2010,04,03,06,57,15.20
2010,04,03,06,58,16.60
2010,04,03,06,59,10.10
2010,04,03,07,00,14.40
2010,04,03,07,01,16.30
2010,04,03,07,02,13.10
2010,04,03,07,03,9.20
2010,04,03,07,04,13.90
2010,04,03,07,05,9.60
2010,04,03,07,06,14.30
2010,04,03,07,07,17.20
2010,04,03,07,08,10.60
2010,04,03,07,09,8.50
2010,04,03,07,10,14.30
2010,04,03,07,11,14.30
2010,04,03,07,12,14.20
2010,04,03,07,13,9.30
2010,04,03,07,14,10.30
2010,04,03,07,15,11.60
2010,04,03,07,16,12.40
2010,04,03,07,17,15.40
2010,04,03,07,18,12.70
2010,04,03,07,19,13.10
2010,04,03,07,20,13.80
2010,04,03,07,21,11.50
2010,04,03,07,22,5.90
2010,04,03,07,23,19.50
2010,04,03,07,24,18.10
2010,04,03,07,25,15.80
2010,04,03,07,26,12.00
2010,04,03,07,27,18.30
2010,04,03,07,28,6.80
2010,04,03,07,29,7.00
2010,04,03,07,30,13.30
2010,04,03,07,31,12.10
2010,04,03,07,32,13.20
2010,04,03,07,33,16.50
2010,04,03,07,34,12.90
2010,04,03,07,35,9.00
2010,04,03,07,36,9.70
2010,04,03,07,37,10.40
2010,04,03,07,38,12.10
2010,04,03,07,39,14.00
2010,04,03,07,40,7.60
2010,04,03,07,41,11.50
2010,04,03,07,42,16.70
2010,04,03,07,43,12.30
2010,04,03,07,44,7.60
2010,04,03,07,45,10.10
2010,04,03,07,46,7.60
2010,04,03,07,47,9.20
2010,04,03,07,48,3.30
2010,04,03,07,49,7.00
2010,04,03,07,50,4.40
2010,04,03,07,51,13.30
2010,04,03,07,52,13.10
2010,04,03,07,53,6.20
2010,04,03,07,54,9.70
2010,04,03,07,55,10.50
2010,04,03,07,56,10.10
2010,04,03,07,57,14.30
2010,04,03,07,58,7.60
2010,04,03,07,59,14.30
2010,04,03,08,00,21.30
2010,04,03,08,01,16.10
2010,04,03,08,02,13.10
2010,04,03,08,03,7.20
2010,04,03,08,04,13.50
2010,04,03,08,05,16.50
2010,04,03,08,06,15.20
2010,04,03,08,07,7.00
2010,04,03,08,08,15.80
2010,04,03,08,09,23.30
2010,04,03,08,10,12.00
2010,04,03,08,11,5.90
2010,04,03,08,12,12.70
2010,04,03,08,13,17.40
2010,04,03,08,14,14.20
2010,04,03,08,15,12.60
2010,04,03,08,16,19.40
2010,04,03,08,17,10.10
2010,04,03,08,18,11.40
2010,04,03,08,19,6.40
2010,04,03,08,20,16.90
2010,04,03,08,21,10.60
2010,04,03,08,22,9.10
2010,04,03,08,23,6.90
2010,04,03,08,24,4.20
2010,04,03,08,25,8.70
2010,04,03,08,26,8.70
2010,04,03,08,27,6.00
2010,04,03,08,28,5.50
2010,04,03,08,29,1.80
2010,04,03,08,30,8.80
2010,04,03,08,31,8.10
2010,04,03,08,32,8.20
2010,04,03,08,33,6.20
2010,04,03,08,34,4.30
2010,04,03,08,35,2.80
2010,04,03,08,36,7.70
2010,04,03,08,37,10.40
2010,04,03,08,38,10.90
2010,04,03,08,39,5.60
2010,04,03,08,40,7.00
2010,04,03,08,41,6.20
2010,04,03,08,42,5.60
2010,04,03,08,43,5.90
2010,04,03,08,44,9.70
2010,04,03,08,45,10.20
2010,04,03,08,46,6.80
2010,04,03,08,47,8.80
2010,04,03,08,48,8.80
2010,04,03,08,49,7.90
2010,04,03,08,50,3.70
2010,04,03,08,51,9.10
2010,04,03,08,52,8.60
2010,04,03,08,53,9.40
2010,04,03,08,54,9.90
2010,04,03,08,55,5.20
2010,04,03,08,56,10.20
2010,04,03,08,57,9.30
2010,04,03,08,58,9.70
2010,04,03,08,59,18.20
2010,04,03,09,00,18.30
2010,04,03,09,01,14.00
2010,04,03,09,02,10.80
2010,04,03,09,03,9.40
2010,04,03,09,04,11.00
2010,04,03,09,05,11.50
2010,04,03,09,06,4.70
2010,04,03,09,07,5.90
2010,04,03,09,08,9.40
2010,04,03,09,09,6.60
2010,04,03,09,10,8.90
2010,04,03,09,11,15.20
2010,04,03,09,12,9.70
2010,04,03,09,13,7.60
2010,04,03,09,14,11.40
2010,04,03,09,15,14.30
2010,04,03,09,16,6.80
2010,04,03,09,17,12.00
2010,04,03,09,18,9.00
2010,04,03,09,19,17.30
2010,04,03,09,20,7.00
2010,04,03,09,21,18.30
2010,04,03,09,22,14.90
2010,04,03,09,23,12.50
2010,04,03,09,24,11.10
2010,04,03,09,25,12.80
2010,04,03,09,26,10.50
2010,04,03,09,27,11.90
2010,04,03,09,28,13.10
2010,04,03,09,29,13.30
2010,04,03,09,30,9.00
2010,04,03,09,31,20.40
2010,04,03,09,32,13.20
2010,04,03,09,33,20.40
2010,04,03,09,34,11.40
2010,04,03,09,35,16.30
2010,04,03,09,36,12.30
2010,04,03,09,37,13.10
2010,04,03,09,38,8.00
2010,04,03,09,39,17.90
2010,04,03,09,40,12.70
2010,04,03,09,41,7.10
2010,04,03,09,42,10.50
2010,04,03,09,43,12.80
2010,04,03,09,44,6.20
2010,04,03,09,45,4.20
2010,04,03,09,46,9.10
2010,04,03,09,47,10.80
2010,04,03,09,48,7.00
2010,04,03,09,49,11.00
2010,04,03,09,50,7.10
2010,04,03,09,51,14.10
2010,04,03,09,52,16.70
2010,04,03,09,53,17.30
2010,04,03,09,54,8.00
2010,04,03,09,55,9.10
2010,04,03,09,56,12.50
2010,04,03,09,57,9.60
2010,04,03,09,58,10.70
2010,04,03,09,59,12.30
2010,04,03,10,00,13.10
2010,04,03,10,01,20.30
2010,04,03,10,02,24.70
2010,04,03,10,03,15.50
2010,04,03,10,04,9.80
2010,04,03,10,05,14.90
2010,04,03,10,06,8.20
2010,04,03,10,07,13.90
2010,04,03,10,08,9.50
2010,04,03,10,09,14.30
2010,04,03,10,10,16.20
2010,04,03,10,11,17.10
2010,04,03,10,12,14.30
2010,04,03,10,13,22.60
2010,04,03,10,14,16.90
2010,04,03,10,15,21.30
2010,04,03,10,16,16.00
2010,04,03,10,17,13.80
2010,04,03,10,18,14.90
2010,04,03,10,19,14.30
2010,04,03,10,20,23.10
2010,04,03,10,21,6.20
2010,04,03,10,22,13.30
2010,04,03,10,23,12.40
2010,04,03,10,24,20.60
2010,04,03,10,25,13.40
2010,04,03,10,26,18.30
2010,04,03,10,27,15.90
2010,04,03,10,28,11.70
2010,04,03,10,29,9.60
2010,04,03,10,30,14.10
2010,04,03,10,31,12.50
2010,04,03,10,32,12.10
2010,04,03,10,33,14.60
2010,04,03,10,34,4.70
2010,04,03,10,35,16.60
2010,04,03,10,36,13.00
2010,04,03,10,37,17.60
2010,04,03,10,38,16.10
2010,04,03,10,39,15.30
2010,04,03,10,40,15.60
2010,04,03,10,41,14.40
2010,04,03,10,42,13.00
2010,04,03,10,43,13.30
2010,04,03,10,44,10.00
2010,04,03,10,45,15.80
2010,04,03,10,46,17.60
2010,04,03,10,47,9.00
2010,04,03,10,48,15.90
2010,04,03,10,49,8.90
2010,04,03,10,50,8.30
2010,04,03,10,51,17.30
2010,04,03,10,52,12.10
2010,04,03,10,53,4.90
2010,04,03,10,54,12.90
2010,04,03,10,55,7.80
2010,04,03,10,56,5.50
2010,04,03,10,57,1.40
2010,04,03,10,58,6.20
2010,04,03,10,59,4.30
2010,04,03,11,00,8.40
2010,04,03,11,01,6.50
2010,04,03,11,02,8.10
2010,04,03,11,03,6.70
2010,04,03,11,04,8.80
2010,04,03,11,05,4.90
2010,04,03,11,06,7.90
2010,04,03,11,07,12.80
2010,04,03,11,08,11.90
2010,04,03,11,09,15.50
2010,04,03,11,10,15.90
2010,04,03,11,11,15.70
2010,04,03,11,12,10.10
2010,04,03,11,13,6.20
2010,04,03,11,14,4.30
2010,04,03,11,15,3.00
2010,04,03,11,16,5.60
2010,04,03,11,17,4.90
2010,04,03,11,18,7.00
2010,04,03,11,19,7.10
2010,04,03,11,20,7.80
2010,04,03,11,21,1.90
2010,04,03,11,22,1.10
2010,04,03,11,23,2.00
2010,04,03,11,24,3.80
2010,04,03,11,25,3.90
2010,04,03,11,26,6.70
2010,04,03,11,27,6.80
2010,04,03,11,28,6.30
2010,04,03,11,29,5.50
2010,04,03,11,30,4.80
2010,04,03,11,31,2.20
2010,04,03,11,32,5.00
2010,04,03,11,33,4.20
2010,04,03,11,34,6.40
2010,04,03,11,35,2.70
2010,04,03,11,36,0.70
2010,04,03,11,37,1.90
2010,04,03,11,38,2.90
2010,04,03,11,39,2.20
2010,04,03,11,40,3.00
2010,04,03,11,41,1.20
2010,04,03,11,42,2.80
2010,04,03,11,43,3.00
2010,04,03,11,44,2.90
2010,04,03,11,45,1.70
2010,04,03,11,46,2.90
2010,04,03,11,47,2.30
2010,04,03,11,48,1.80
2010,04,03,11,49,4.20
2010,04,03,11,50,4.60
2010,04,03,11,51,2.70
2010,04,03,11,52,0.60
2010,04,03,11,53,3.00
2010,04,03,11,54,3.30
2010,04,03,11,55,6.00
2010,04,03,11,56,4.70
2010,04,03,11,57,4.00
2010,04,03,11,58,4.40
2010,04,03,11,59,5.90
2010,04,03,12,00,6.00
2010,04,03,12,01,4.20
2010,04,03,12,02,5.20
2010,04,03,12,03,5.60
2010,04,03,12,04,3.80
2010,04,03,12,05,4.50
2010,04,03,12,06,5.40
2010,04,03,12,07,6.40
2010,04,03,12,08,5.20
2010,04,03,12,09,6.40
2010,04,03,12,10,3.40
2010,04,03,12,11,4.50
2010,04,03,12,12,5.30
2010,04,03,12,13,7.60
2010,04,03,12,14,7.00
2010,04,03,12,15,2.90
2010,04,03,12,16,6.50
2010,04,03,12,17,5.80
2010,04,03,12,18,4.90
2010,04,03,12,19,3.80
2010,04,03,12,20,2.90
2010,04,03,12,21,4.50
2010,04,03,12,22,5.00
2010,04,03,12,23,4.00
2010,04,03,12,24,3.40
2010,04,03,12,25,4.30
2010,04,03,12,26,5.80
2010,04,03,12,27,1.90
2010,04,03,12,28,3.60
2010,04,03,12,29,2.30
2010,04,03,12,30,5.00
2010,04,03,12,31,2.50
2010,04,03,12,32,2.80
2010,04,03,12,33,2.70
2010,04,03,12,34,5.10
2010,04,03,12,35,4.70
2010,04,03,12,36,2.80
2010,04,03,12,37,7.50
2010,04,03,12,38,8.10
2010,04,03,12,39,4.90
2010,04,03,12,40,7.70
2010,04,03,12,41,9.60
2010,04,03,12,42,7.30
2010,04,03,12,43,7.10
2010,04,03,12,44,4.20
2010,04,03,12,45,1.80
2010,04,03,12,46,2.30
2010,04,03,12,47,7.30
2010,04,03,12,48,6.80
2010,04,03,12,49,6.90
2010,04,03,12,50,4.50
2010,04,03,12,51,3.40
2010,04,03,12,52,8.90
2010,04,03,12,53,5.50
2010,04,03,12,54,4.10
2010,04,03,12,55,2.20
2010,04,03,12,56,0.50
2010,04,03,12,57,0.20
2010,04,03,12,58,1.20
2010,04,03,12,59,5.20
2010,04,03,13,00,7.10
2010,04,03,13,01,4.70
2010,04,03,13,02,3.70
2010,04,03,13,03,3.60
2010,04,03,13,04,5.50
2010,04,03,13,05,9.70
2010,04,03,13,06,7.90
2010,04,03,13,07,4.70
2010,04,03,13,08,7.70
2010,04,03,13,09,8.30
2010,04,03,13,10,5.30
2010,04,03,13,11,4.20
2010,04,03,13,12,4.20
2010,04,03,13,13,3.90
2010,04,03,13,14,3.30
2010,04,03,13,15,6.30
2010,04,03,13,16,8.50
2010,04,03,13,17,10.20
2010,04,03,13,18,5.50
2010,04,03,13,19,8.00
2010,04,03,13,20,6.20
2010,04,03,13,21,5.60
2010,04,03,13,22,7.30
2010,04,03,13,23,8.30
2010,04,03,13,24,7.00
2010,04,03,13,25,10.30
2010,04,03,13,26,9.20
2010,04,03,13,27,10.20
2010,04,03,13,28,15.90
2010,04,03,13,29,9.90
2010,04,03,13,30,8.80
2010,04,03,13,31,9.00
2010,04,03,13,32,10.70
2010,04,03,13,33,8.20
2010,04,03,13,34,13.00
2010,04,03,13,35,10.10
2010,04,03,13,36,12.60
2010,04,03,13,37,10.70
2010,04,03,13,38,10.00
2010,04,03,13,39,13.80
2010,04,03,13,40,9.30
2010,04,03,13,41,14.60
2010,04,03,13,42,16.60
2010,04,03,13,43,12.40
2010,04,03,13,44,9.60
2010,04,03,13,45,9.90
2010,04,03,13,46,11.10
2010,04,03,13,47,8.90
2010,04,03,13,48,9.20
2010,04,03,13,49,14.40
2010,04,03,13,50,9.90
2010,04,03,13,51,11.90
2010,04,03,13,52,10.90
2010,04,03,13,53,10.90
2010,04,03,13,54,16.40
2010,04,03,13,55,9.90
2010,04,03,13,56,11.90
2010,04,03,13,57,11.40
2010,04,03,13,58,16.10
2010,04,03,13,59,8.90
2010,04,03,14,00,6.50
2010,04,03,14,01,11.00
2010,04,03,14,02,6.40
2010,04,03,14,03,8.30
2010,04,03,14,04,12.40
2010,04,03,14,05,10.70
2010,04,03,14,06,9.20
2010,04,03,14,07,7.40
2010,04,03,14,08,8.30
2010,04,03,14,09,10.30
2010,04,03,14,10,7.30
2010,04,03,14,11,11.80
2010,04,03,14,12,6.80
2010,04,03,14,13,10.60
2010,04,03,14,14,12.90
2010,04,03,14,15,11.00
2010,04,03,14,16,11.40
2010,04,03,14,17,13.50
2010,04,03,14,18,9.30
2010,04,03,14,19,9.10
2010,04,03,14,20,8.00
2010,04,03,14,21,10.90
2010,04,03,14,22,7.10
2010,04,03,14,23,13.60
2010,04,03,14,24,16.00
2010,04,03,14,25,12.40
2010,04,03,14,26,9.40
2010,04,03,14,27,10.80
2010,04,03,14,28,10.10
2010,04,03,14,29,12.40
2010,04,03,14,30,10.30
2010,04,03,14,31,9.80
2010,04,03,14,32,15.50
2010,04,03,14,33,12.90
2010,04,03,14,34,12.00
2010,04,03,14,35,12.30
2010,04,03,14,36,13.80
2010,04,03,14,37,15.60
2010,04,03,14,38,7.30
2010,04,03,14,39,11.60
2010,04,03,14,40,16.30
2010,04,03,14,41,16.40
2010,04,03,14,42,12.00
2010,04,03,14,43,10.20
2010,04,03,14,44,13.40
2010,04,03,14,45,13.10
2010,04,03,14,46,11.70
2010,04,03,14,47,11.70
2010,04,03,14,48,17.40
2010,04,03,14,49,15.00
2010,04,03,14,50,12.50
2010,04,03,14,51,13.20
2010,04,03,14,52,14.30
2010,04,03,14,53,10.00
2010,04,03,14,54,11.10
2010,04,03,14,55,10.40
2010,04,03,14,56,14.80
2010,04,03,14,57,13.70
2010,04,03,14,58,11.30
2010,04,03,14,59,14.10
2010,04,03,15,00,12.60
2010,04,03,15,01,16.50
2010,04,03,15,02,13.10
2010,04,03,15,03,12.40
2010,04,03,15,04,6.30
2010,04,03,15,05,7.50
2010,04,03,15,06,8.70
2010,04,03,15,07,10.30
2010,04,03,15,08,14.80
2010,04,03,15,09,13.40
2010,04,03,15,10,11.70
2010,04,03,15,11,10.90
2010,04,03,15,12,7.80
2010,04,03,15,13,13.80
2010,04,03,15,14,13.60
2010,04,03,15,15,10.50
2010,04,03,15,16,14.00
2010,04,03,15,17,12.90
2010,04,03,15,18,10.20
2010,04,03,15,19,10.00
2010,04,03,15,20,9.30
2010,04,03,15,21,6.30
2010,04,03,15,22,9.60
2010,04,03,15,23,8.80
2010,04,03,15,24,9.70
2010,04,03,15,25,10.50
2010,04,03,15,26,13.30
2010,04,03,15,27,11.20
2010,04,03,15,28,12.10
2010,04,03,15,29,15.30
2010,04,03,15,30,12.80
2010,04,03,15,31,10.50
2010,04,03,15,32,12.00
2010,04,03,15,33,8.00
2010,04,03,15,34,12.00
2010,04,03,15,35,12.50
2010,04,03,15,36,14.00
2010,04,03,15,37,9.50
2010,04,03,15,38,8.40
2010,04,03,15,39,7.60
2010,04,03,15,40,7.20
2010,04,03,15,41,5.60
2010,04,03,15,42,5.60
2010,04,03,15,43,7.40
2010,04,03,15,44,13.50
2010,04,03,15,45,5.80
2010,04,03,15,46,5.50
2010,04,03,15,47,5.10
2010,04,03,15,48,7.90
2010,04,03,15,49,6.70
2010,04,03,15,50,6.10
2010,04,03,15,51,8.90
2010,04,03,15,52,10.30
2010,04,03,15,53,7.00
2010,04,03,15,54,2.50
2010,04,03,15,55,10.00
2010,04,03,15,56,15.70
2010,04,03,15,57,14.20
2010,04,03,15,58,11.40
2010,04,03,15,59,16.10
2010,04,03,16,00,15.70
2010,04,03,16,01,13.60
2010,04,03,16,02,15.20
2010,04,03,16,03,9.80
2010,04,03,16,04,9.90
2010,04,03,16,05,7.40
2010,04,03,16,06,6.50
2010,04,03,16,07,5.60
2010,04,03,16,08,6.00
2010,04,03,16,09,8.80
2010,04,03,16,10,8.40
2010,04,03,16,11,12.20
2010,04,03,16,12,10.70
2010,04,03,16,13,9.20
2010,04,03,16,14,4.40
2010,04,03,16,15,5.80
2010,04,03,16,16,8.80
2010,04,03,16,17,12.30
2010,04,03,16,18,11.90
2010,04,03,16,19,6.40
2010,04,03,16,20,6.70
2010,04,03,16,21,6.60
2010,04,03,16,22,6.10
2010,04,03,16,23,7.70
2010,04,03,16,24,5.20
2010,04,03,16,25,6.50
2010,04,03,16,26,7.50
2010,04,03,16,27,9.00
2010,04,03,16,28,9.00
2010,04,03,16,29,10.90
2010,04,03,16,30,6.30
2010,04,03,16,31,3.40
2010,04,03,16,32,9.40
2010,04,03,16,33,8.80
2010,04,03,16,34,6.50
2010,04,03,16,35,10.20
2010,04,03,16,36,6.60
2010,04,03,16,37,5.30
2010,04,03,16,38,4.90
2010,04,03,16,39,4.00
2010,04,03,16,40,6.90
2010,04,03,16,41,7.00
2010,04,03,16,42,7.50
2010,04,03,16,43,11.00
2010,04,03,16,44,9.30
2010,04,03,16,45,4.90
2010,04,03,16,46,2.40
2010,04,03,16,47,6.70
2010,04,03,16,48,5.80
2010,04,03,16,49,6.60
2010,04,03,16,50,12.60
2010,04,03,16,51,11.50
2010,04,03,16,52,12.50
2010,04,03,16,53,13.10
2010,04,03,16,54,10.30
2010,04,03,16,55,12.30
2010,04,03,16,56,13.20
2010,04,03,16,57,12.50
2010,04,03,16,58,9.00
2010,04,03,16,59,6.40
2010,04,03,17,00,10.60
2010,04,03,17,01,6.90
2010,04,03,17,02,5.60
2010,04,03,17,03,10.30
2010,04,03,17,04,9.30
2010,04,03,17,05,10.90
2010,04,03,17,06,10.70
2010,04,03,17,07,5.90
2010,04,03,17,08,4.90
2010,04,03,17,09,6.70
2010,04,03,17,10,9.70
2010,04,03,17,11,9.90
2010,04,03,17,12,6.10
2010,04,03,17,13,5.20
2010,04,03,17,14,8.50
2010,04,03,17,15,6.40
2010,04,03,17,16,7.40
2010,04,03,17,17,9.70
2010,04,03,17,18,9.00
2010,04,03,17,19,6.40
2010,04,03,17,20,8.90
2010,04,03,17,21,6.40
2010,04,03,17,22,10.30
2010,04,03,17,23,7.20
2010,04,03,17,24,7.20
2010,04,03,17,25,9.40
2010,04,03,17,26,8.50
2010,04,03,17,27,8.90
2010,04,03,17,28,6.70
2010,04,03,17,29,4.80
2010,04,03,17,30,6.80
2010,04,03,17,31,12.00
2010,04,03,17,32,12.50
2010,04,03,17,33,11.30
2010,04,03,17,34,8.70
2010,04,03,17,35,9.10
2010,04,03,17,36,7.50
2010,04,03,17,37,4.60
2010,04,03,17,38,4.20